[[{"header":{"parameterUnit":"m.s-1","parameterCategory":1,"la1":30.2991,"la2":30.254,"lo1":-89.0895,"lo2":-89.0444,"dy":0.0017,"dx":0.0017,"nx":28,"ny":28,"refTime":"2024-02-21T09:00:00:Z","depth":0,"parameterNumber":2,"parameterNumberName":"U-component_of_WINDS"},"data":[0,0,0,0,0,0,0,0,0,0,0,0,0,0,0,0,0,0,0,0,0,0,0,0,0,0,0,0,0,0,0,0,0,0,0,0,0,0,0,0,0,0,0,0,0,0,0,0,0,0,0,0,0,0,0,0,0,0,3.3844,3.3844,0,3.3901,3.3901,3.3902,3.3853,3.3851,3.3849,3.3847,3.3907,3.3911,3.3914,0,0,0,0,0,0,0,0,0,0,0,0,0,3.3694,3.3697,3.3843,3.3844,3.3845,3.39,3.3901,3.3902,3.3853,3.3851,3.3848,3.3846,3.3906,3.391,3.3914,0,0,0,0,0,0,0,0,0,0,0,0,0,3.3756,3.3698,3.3843,3.3827,3.3826,3.39,3.3901,3.3902,3.3854,3.3851,3.3848,3.3845,3.3905,3.391,3.3915,3.4009,0,0,3.3931,3.3933,0,0,0,0,0,0,0,0,3.3752,3.3761,3.3829,3.3828,3.3828,3.3866,3.3871,3.3938,3.3854,3.3843,3.3847,3.3843,3.3896,3.3902,3.3919,3.4011,3.4014,3.3932,3.3935,3.3937,3.3939,0,0,0,0,0,0,0,3.3748,3.3759,3.3866,3.383,3.3829,3.3818,3.3823,3.3883,3.3886,3.3844,3.3841,3.3848,3.3895,3.3915,3.3921,3.4015,3.3931,3.3936,3.3939,3.3941,3.4186,3.4189,0,0,0,0,0,0,3.3745,3.3755,3.3864,3.3868,3.3782,3.3823,3.3829,3.3857,3.3885,3.3887,3.385,3.3845,3.3907,3.3914,3.3922,3.4033,3.3937,3.3942,3.3945,3.4183,3.4187,3.419,0,0,0,0,0,0,3.3742,3.3756,3.3862,3.3811,3.3823,3.3829,3.3861,3.386,3.3879,3.389,3.3891,3.3869,3.3905,3.3915,3.3987,3.4035,3.3944,3.3949,3.4179,3.4184,3.4188,3.4256,0,0,0,0,0,0,3.3738,3.3755,3.379,3.3812,3.3826,3.3926,3.3864,3.3863,3.3888,3.3882,3.3908,3.391,3.3903,3.398,3.3992,3.404,3.3953,3.4174,3.4181,3.4187,3.425,3.4263,3.4274,0,0,0,0,0,3.3733,3.3807,3.3792,3.3805,3.387,3.3928,3.3937,3.3927,3.3892,3.3927,3.3935,3.3909,3.4028,3.3987,3.4001,3.4052,3.4171,3.4179,3.4186,3.4244,3.426,3.4274,0,0,0,0,0,0,3.3792,3.381,3.3793,3.3876,3.3901,3.392,3.3965,3.3945,3.398,3.3973,3.3961,3.3967,3.4043,3.4055,3.401,3.4143,3.4094,3.4105,3.4133,3.4148,3.416,3.4156,3.3958,0,0,0,0,0,3.3814,3.3859,3.3873,3.3945,3.3958,3.396,3.3984,3.3975,3.4,3.4011,3.4023,3.4049,3.4092,3.4121,3.4161,3.4251,3.4256,3.4293,3.4305,3.4315,3.4324,3.4372,3.4388,3.4215,3.4215,3.4215,0,0,3.3861,3.3877,3.3906,3.3957,3.3975,3.4023,3.3969,3.4021,3.4056,3.4019,3.4087,3.4098,3.4126,3.4207,3.4244,3.4219,3.4373,3.4324,3.4332,3.4336,3.4382,3.4398,3.4413,3.422,3.4219,3.4218,0,0,3.3971,3.3988,3.4049,3.4068,3.4096,3.4096,3.4111,3.4133,3.4138,3.4207,3.4179,3.4221,3.4296,3.4317,3.4337,3.4455,3.4433,3.4469,3.4533,3.4579,3.4593,3.4605,3.4647,3.4662,3.4478,3.4478,3.4478,0,3.4026,3.4096,3.4084,3.4138,3.4161,3.4129,3.4192,3.4211,3.4251,3.4268,3.424,3.4332,3.4349,3.4435,3.4463,3.4481,3.4498,3.4466,3.4592,3.4604,3.4615,3.4655,3.467,3.4482,3.4482,3.4482,3.4481,0,3.4162,3.4211,3.4258,3.4296,3.4325,3.4383,3.438,3.4411,3.4399,3.4402,3.4472,3.4491,3.4535,3.4554,3.4544,3.4639,3.4622,3.4594,3.4543,3.4636,3.4673,3.4688,3.4488,3.4487,3.4486,3.4485,0,0,3.431,3.4341,3.4358,3.4375,3.4403,3.4441,3.4498,3.454,3.4566,3.4595,3.4642,3.4706,3.4679,3.4702,3.4694,3.4735,3.4826,3.4701,3.4701,3.4723,3.4932,3.4953,3.4971,3.4812,3.4815,3.4817,3.4929,0,3.4421,3.4519,3.451,3.4603,3.4648,3.4618,3.4668,3.4691,3.4695,3.4734,3.474,3.4785,3.4746,3.476,3.48,3.4807,3.4868,3.4799,3.4856,3.4858,3.4849,3.499,3.5013,3.5118,3.4943,3.4946,3.4948,0,3.4563,3.4596,3.4693,3.4714,3.4733,3.4778,3.4815,3.4853,3.4878,3.4879,3.4905,3.4889,3.4946,3.4895,3.4974,3.4927,3.495,3.4957,3.4961,3.4966,3.4908,3.4998,3.5151,3.5167,3.497,3.4969,3.4967,0,3.466,3.4729,3.4796,3.4812,3.4838,3.487,3.4883,3.4905,3.4931,3.4964,3.498,3.502,3.5041,3.5072,3.5068,3.5031,3.5148,3.5097,3.515,3.515,3.5176,3.5174,3.5334,3.5192,3.5191,3.5191,3.5191,0,3.4785,3.4845,3.4841,3.4882,3.4949,3.4938,3.5006,3.5014,3.5035,3.5077,3.5054,3.5095,3.5086,3.5127,3.5124,3.519,3.52,3.5202,3.52,3.5204,3.5203,3.5218,3.5211,3.5195,3.5194,3.5194,3.5193,0,3.4905,3.4904,3.4975,3.4994,3.5,3.5049,3.5066,3.5105,3.5107,3.5162,3.5174,3.5179,3.5225,3.5224,3.5277,3.5275,3.5355,3.5345,3.5346,3.5344,3.5398,3.5392,3.5572,3.5595,3.5438,3.544,3.5441,0,3.4984,3.503,3.5054,3.508,3.5095,3.5138,3.5164,3.5155,3.5183,3.5215,3.5251,3.5295,3.533,3.5406,3.5414,3.5454,3.5445,3.5505,3.5451,3.5453,3.5445,3.5442,3.5447,3.5516,3.5518,3.5519,3.552,0,3.5124,3.5121,3.5159,3.5197,3.5228,3.5258,3.5285,3.5308,3.5302,3.5335,3.5382,3.5409,3.5463,3.5507,3.5546,3.5559,3.5539,3.5537,3.5552,3.5556,3.5554,3.5555,3.5375,3.5533,3.5532,3.5531,3.553,3.553,3.5225,3.5265,3.5288,3.5331,3.535,3.5376,3.5413,3.5421,3.546,3.5502,3.5495,3.5548,3.5572,3.5621,3.5638,3.5679,3.5658,3.5679,3.5684,3.5689,3.5695,3.5548,3.5686,3.5686,3.5686,3.5685,3.5685,0,3.5364,3.5377,3.5417,3.5455,3.5489,3.5467,3.5496,3.5525,3.5572,3.5596,3.5631,3.5684,3.5727,3.5739,3.578,3.581,3.5802,3.5822,3.5819,3.5822,3.5712,3.5695,3.5827,3.5827,3.5827,3.5827,3.5827,3.5827,3.544,3.5505,3.5505,3.558,3.5593,3.5644,3.5662,3.5686,3.5705,3.5766,3.5801,3.5808,3.5827,3.5869,3.5908,3.591,3.5926,3.5949,3.5947,3.5844,3.583,3.5816,3.58,3.5953,3.5953,3.6054,3.6055,3.6056]},{"header":{"parameterUnit":"m.s-1","parameterCategory":1,"la1":30.2991,"la2":30.254,"lo1":-89.0895,"lo2":-89.0444,"dy":0.0017,"dx":0.0017,"nx":28,"ny":28,"refTime":"2024-02-21T09:00:00:Z","depth":0,"parameterNumber":3,"parameterNumberName":"V-component_of_WINDS"},"data":[0,0,0,0,0,0,0,0,0,0,0,0,0,0,0,0,0,0,0,0,0,0,0,0,0,0,0,0,0,0,0,0,0,0,0,0,0,0,0,0,0,0,0,0,0,0,0,0,0,0,0,0,0,0,0,0,0,0,4.9653,4.9655,0,4.9828,4.983,4.9832,4.9836,4.9834,4.9832,4.983,5.0006,5.0013,5.0019,0,0,0,0,0,0,0,0,0,0,0,0,0,4.9321,4.9327,4.9653,4.9655,4.9657,4.9827,4.983,4.9832,4.9836,4.9834,4.9831,4.9829,5.0004,5.0012,5.002,0,0,0,0,0,0,0,0,0,0,0,0,0,4.9477,4.9329,4.9653,4.968,4.9684,4.9827,4.983,4.9833,4.9837,4.9834,4.983,4.9827,5.0001,5.0011,5.0021,5.0148,0,0,5.0052,5.0056,0,0,0,0,0,0,0,0,4.9468,4.9489,4.9674,4.9678,4.9683,4.9807,4.9777,4.9938,4.9838,4.9779,4.9829,4.9826,4.9942,4.9957,4.9997,5.0156,5.0164,5.0053,5.0059,5.0063,5.0066,0,0,0,0,0,0,0,4.9457,4.9482,4.9722,4.9676,4.9682,4.9683,4.9701,4.9808,4.9876,4.9784,4.9784,4.9805,4.9944,4.9987,5.0001,5.0166,5.0053,5.0061,5.0068,5.0072,5.0437,5.0441,0,0,0,0,0,0,4.9441,4.9473,4.9717,4.9727,4.9566,4.9691,4.9712,4.977,4.9875,4.9888,4.9808,4.9805,4.9972,4.9989,5.0007,5.0163,5.0063,5.0073,5.0078,5.0434,5.0438,5.0442,0,0,0,0,0,0,4.9434,4.9463,4.9709,4.96,4.9632,4.97,4.9766,4.9776,4.9818,4.9894,4.9905,4.9839,4.997,4.9993,5.0113,5.0169,5.0077,5.0086,5.0429,5.0435,5.044,5.0474,0,0,0,0,0,0,4.9425,4.946,4.951,4.9601,4.9638,4.9813,4.9769,4.9781,4.9836,4.9834,4.9926,4.9938,4.9969,5.0098,5.0123,5.0181,5.0094,5.0425,5.0432,5.0438,5.0468,5.048,5.049,0,0,0,0,0,4.9413,4.9512,4.9513,4.9542,4.9701,4.9816,4.9837,4.9871,4.984,4.989,4.9938,4.9935,5.0158,5.011,5.0138,5.02,5.0421,5.043,5.0438,5.0463,5.0478,5.049,0,0,0,0,0,0,4.9425,4.9525,4.9526,4.9658,4.9729,4.9817,4.9881,4.9885,4.9965,4.996,4.9997,5.0018,5.0137,5.018,5.0125,5.0328,5.0286,5.03,5.0296,5.031,5.0321,5.0308,5.0102,0,0,0,0,0,4.9443,4.9529,4.9611,4.972,4.9755,4.9812,4.9864,4.9884,4.9958,4.9988,5.0044,5.0116,5.0202,5.0258,5.0342,5.0474,5.0494,5.053,5.0541,5.0549,5.0562,5.0635,5.0652,5.0469,5.0469,5.0469,0,0,4.9482,4.9547,4.9599,4.9724,4.9781,4.9869,4.9837,4.9931,4.9997,5.0002,5.0119,5.0163,5.0245,5.0371,5.043,5.0411,5.0616,5.056,5.0566,5.0574,5.0645,5.0662,5.0677,5.0475,5.0474,5.0473,0,0,4.9597,4.9654,4.9751,4.9809,4.9896,4.9933,4.9956,5.0044,5.0073,5.0191,5.0197,5.0274,5.0422,5.048,5.0529,5.0665,5.0665,5.0691,5.0748,5.0819,5.0833,5.0846,5.0895,5.0912,5.0702,5.0702,5.0703,0,4.9633,4.9767,4.98,4.9895,4.995,4.9959,5.0057,5.0111,5.022,5.0257,5.0235,5.042,5.0476,5.0616,5.0649,5.0688,5.0715,5.0681,5.0828,5.0842,5.0854,5.0901,5.0919,5.0705,5.0705,5.0705,5.0704,0,4.9807,4.9899,4.9967,5.0073,5.0135,5.0231,5.0279,5.0338,5.0351,5.039,5.051,5.0577,5.0674,5.0708,5.0723,5.0851,5.0836,5.082,5.078,5.0874,5.0918,5.0937,5.0709,5.0708,5.0707,5.0707,0,0,4.9936,5.006,5.0084,5.0132,5.0228,5.03,5.0395,5.0491,5.054,5.0615,5.0696,5.082,5.0806,5.0861,5.0882,5.0943,5.1047,5.092,5.0923,5.0942,5.1192,5.1204,5.1224,5.1047,5.105,5.1053,5.1185,0,5.0062,5.0234,5.0267,5.0415,5.0501,5.0509,5.0592,5.066,5.0698,5.0775,5.0817,5.0905,5.0879,5.0913,5.0974,5.1021,5.1098,5.1012,5.1122,5.1126,5.1102,5.1247,5.1261,5.1382,5.1202,5.1205,5.1208,0,5.0232,5.0312,5.0469,5.0554,5.0591,5.0665,5.0755,5.0829,5.0905,5.0928,5.099,5.1003,5.1102,5.1055,5.1191,5.1132,5.1179,5.1208,5.1214,5.1226,5.1173,5.1264,5.1421,5.144,5.1235,5.1233,5.1231,0,5.0311,5.0458,5.0571,5.0612,5.0713,5.0765,5.0809,5.0882,5.0937,5.1015,5.1051,5.1139,5.1187,5.1254,5.1291,5.1254,5.1424,5.138,5.1446,5.1445,5.1483,5.148,5.165,5.1511,5.1511,5.151,5.151,0,5.0449,5.0545,5.0608,5.0678,5.0785,5.0821,5.0926,5.0969,5.1034,5.1111,5.1123,5.1196,5.1239,5.1317,5.1346,5.1454,5.1476,5.1497,5.1504,5.1497,5.1494,5.1529,5.1521,5.1515,5.1514,5.1513,5.1512,0,5.0556,5.0602,5.0726,5.0811,5.0835,5.091,5.0983,5.1051,5.1088,5.1186,5.1211,5.127,5.1363,5.1406,5.152,5.1539,5.1662,5.1663,5.1637,5.164,5.1703,5.1697,5.1902,5.1931,5.1772,5.1773,5.1775,0,5.0642,5.0716,5.0809,5.0863,5.0909,5.0994,5.105,5.1088,5.1146,5.1238,5.1294,5.1387,5.1464,5.1611,5.1663,5.175,5.1754,5.1819,5.1767,5.1757,5.1755,5.1751,5.1758,5.1829,5.1831,5.1832,5.1833,0,5.0788,5.0807,5.0889,5.0979,5.1046,5.1118,5.1188,5.1231,5.1279,5.1343,5.1439,5.1498,5.1615,5.1707,5.1797,5.1842,5.1846,5.1849,5.1869,5.1863,5.1846,5.1857,5.1664,5.1845,5.1843,5.1843,5.1842,5.1842,5.0888,5.0954,5.1031,5.1121,5.1178,5.1243,5.1311,5.1357,5.1438,5.1537,5.1553,5.1655,5.1727,5.1849,5.1897,5.1976,5.196,5.1989,5.1996,5.2003,5.2007,5.1832,5.1992,5.1992,5.1992,5.1991,5.1991,0,5.1036,5.1085,5.1168,5.1267,5.1337,5.1335,5.1413,5.1472,5.1561,5.1629,5.1705,5.1813,5.1903,5.1962,5.2052,5.2103,5.2107,5.2126,5.2123,5.2133,5.2016,5.199,5.2121,5.2121,5.2121,5.2121,5.2121,5.2121,5.1122,5.1234,5.1262,5.1402,5.145,5.1551,5.1595,5.1655,5.171,5.1831,5.1906,5.1944,5.2008,5.2103,5.2184,5.2199,5.2232,5.2251,5.2265,5.2155,5.2141,5.2128,5.2104,5.2258,5.2258,5.2376,5.2378,5.2378]}]]